EW7144 Weather Reports


time (UTC)temp
C
wind
direction
speed
KPH
gust
KPH
rain 1hr
cm
rain 24hr
cm
rain mn
cm
humidity
%
barometer
mb
20260902163406 13 342 16.1 37.0 0.00 0.00 0.00 87 1014.9
20260902162905 13 342 14.5 32.2 0.00 0.00 0.00 87 1014.9
20260902162406 13 347 19.3 32.2 0.00 0.00 0.00 87 1014.9
20260902161905 13 356 16.1 35.4 0.00 0.00 0.00 87 1014.8
20260902161406 13 352 17.7 33.8 0.00 0.00 0.00 87 1014.7
20260902160905 13 328 19.3 40.2 0.00 0.00 0.00 88 1014.7
20260902160405 13 320 16.1 32.2 0.00 0.00 0.00 88 1014.7
20260902155905 13 337 16.1 33.8 0.00 0.00 0.00 88 1014.7
20260902154905 13 331 16.1 33.8 0.00 0.00 0.00 88 1014.7
20260902154405 13 355 20.9 35.4 0.00 0.00 0.00 88 1014.7
20260902153905 13 318 20.9 35.4 0.00 0.00 0.00 88 1014.6
20260902153406 13 349 16.1 33.8 0.00 0.00 0.00 88 1014.6
20260902152905 13 341 19.3 32.2 0.00 0.00 0.00 88 1014.7
20260902152405 13 328 19.3 32.2 0.00 0.00 0.00 88 1014.8
20260902151905 13 343 16.1 27.4 0.00 0.00 0.00 88 1014.7
20260902150905 13 345 20.9 35.4 0.00 0.00 0.00 88 1014.9
20260902150405 13 324 14.5 38.6 0.00 0.00 0.00 88 1014.8
20260902145906 13 338 19.3 41.8 0.00 0.00 0.00 88 1014.8
20260902145405 13 340 16.1 32.2 0.00 0.00 0.00 88 1015.0
20260902144905 13 347 14.5 33.8 0.00 0.00 0.00 88 1015.1
20260902144406 13 335 19.3 32.2 0.00 0.00 0.00 88 1015.1
20260902143405 13 343 16.1 32.2 0.00 0.00 0.00 88 1015.2
20260902142405 13 354 16.1 32.2 0.00 0.00 0.00 88 1015.4
20260902141406 13 327 12.9 33.8 0.00 0.00 0.00 88 1015.4
20260902140906 13 341 16.1 41.8 0.00 0.00 0.00 88 1015.5
20260902140405 13 347 14.5 37.0 0.00 0.00 0.00 88 1015.5
20260902135405 13 349 16.1 32.2 0.00 0.00 0.00 88 1015.5
20260902134905 13 347 14.5 32.2 0.00 0.00 0.00 87 1015.6
20260902134405 13 348 12.9 35.4 0.00 0.00 0.00 87 1015.6
20260902133905 13 306 11.3 27.4 0.00 0.00 0.00 87 1015.7
20260902133405 13 348 14.5 32.2 0.00 0.00 0.00 87 1015.7
20260902132905 13 345 19.3 33.8 0.00 0.00 0.00 87 1015.6
20260902132405 13 344 14.5 40.2 0.00 0.00 0.00 87 1015.5
20260902131905 13 352 19.3 38.6 0.00 0.00 0.00 87 1015.6
20260902130905 13 351 16.1 32.2 0.00 0.00 0.00 87 1015.5
20260902130405 13 349 19.3 40.2 0.00 0.00 0.00 87 1015.6
20260902125905 13 341 19.3 45.1 0.00 0.00 0.00 87 1015.6
20260902125406 13 336 16.1 32.2 0.00 0.00 0.00 87 1015.6
20260902124905 13 349 20.9 37.0 0.00 0.00 0.00 87 1015.4
20260902124405 13 349 16.1 33.8 0.00 0.00 0.00 87 1015.4
20260902123905 13 333 16.1 33.8 0.00 0.00 0.00 87 1015.4
20260902121905 13 345 20.9 38.6 0.00 0.00 0.00 86 1015.2
20260902121405 13 330 14.5 32.2 0.00 0.00 0.00 86 1015.2
20260902120905 13 329 19.3 35.4 0.00 0.00 0.00 86 1015.2
20260902120405 13 350 20.9 33.8 0.00 0.00 0.00 86 1015.2
20260902115905 13 337 20.9 37.0 0.00 0.00 0.00 86 1015.2
20260902115406 13 345 16.1 33.8 0.00 0.00 0.00 86 1015.2
20260902114906 13 351 19.3 37.0 0.00 0.00 0.00 86 1015.2
20260902113405 13 345 16.1 37.0 0.00 0.00 0.00 87 1015.2
20260902112905 13 354 14.5 35.4 0.00 0.00 0.00 87 1015.2
20260902112405 13 330 16.1 32.2 0.00 0.00 0.00 87 1015.3
20260902111905 13 342 14.5 29.0 0.00 0.00 0.00 87 1015.3
20260902111405 13 347 11.3 32.2 0.00 0.00 0.00 87 1015.3
20260902110905 13 332 14.5 38.6 0.00 0.00 0.00 87 1015.4
20260902110405 13 332 19.3 40.2 0.00 0.00 0.00 87 1015.2
20260902104405 13 336 19.3 37.0 0.00 0.00 0.00 86 1015.2
20260902103405 13 332 19.3 37.0 0.00 0.00 0.00 86 1015.2
20260902102904 13 357 19.3 32.2 0.00 0.00 0.00 86 1015.2
20260902102405 13 356 22.5 46.7 0.00 0.00 0.00 86 1015.1
20260902101909 13 341 20.9 37.0 0.00 0.00 0.00 86 1015.2
20260902101405 13 341 20.9 45.1 0.00 0.00 0.00 86 1015.2
20260902100905 13 345 19.3 38.6 0.00 0.00 0.00 86 1015.1
20260902100405 13 354 17.7 38.6 0.00 0.00 0.00 86 1015.2
20260902095905 13 351 16.1 32.2 0.00 0.00 0.00 85 1015.2
20260902095405 13 350 16.1 29.0 0.00 0.00 0.00 85 1015.1
20260902094905 13 286 16.1 32.2 0.00 0.00 0.00 85 1015.1
20260902094405 13 346 20.9 33.8 0.00 0.00 0.00 84 1015.2
20260902093905 13 356 16.1 38.6 0.00 0.00 0.00 84 1015.3
20260902092907 13 344 16.1 33.8 0.00 0.00 0.00 84 1015.1
20260902092406 13 346 22.5 45.1 0.00 0.00 0.00 84 1015.0
20260902091905 13 316 20.9 38.6 0.00 0.00 0.00 84 1014.9
20260902091406 13 337 17.7 32.2 0.00 0.00 0.00 85 1014.9
20260902090905 13 327 16.1 32.2 0.00 0.00 0.00 84 1014.9
20260902090406 13 333 14.5 37.0 0.00 0.00 0.00 84 1014.9
20260902085405 13 343 17.7 37.0 0.00 0.00 0.00 84 1014.6
20260902084906 13 356 20.9 40.2 0.00 0.00 0.00 85 1014.7
20260902084407 13 331 16.1 32.2 0.00 0.00 0.00 85 1014.7
20260902083909 13 344 19.3 41.8 0.00 0.00 0.00 85 1014.7
20260902083405 13 330 16.1 27.4 0.00 0.00 0.00 85 1014.7
20260902082406 13 343 19.3 37.0 0.00 0.00 0.00 84 1014.7
20260902081905 13 349 17.7 38.6 0.00 0.00 0.00 84 1014.6
20260902081405 13 331 14.5 32.2 0.00 0.00 0.00 84 1014.6
20260902080904 13 331 11.3 32.2 0.00 0.00 0.00 84 1014.6
20260902080405 13 348 14.5 35.4 0.00 0.00 0.00 84 1014.5
20260902075905 13 344 14.5 45.1 0.00 0.00 0.00 84 1014.4
20260902074905 13 301 19.3 38.6 0.00 0.00 0.00 85 1014.5
20260902074406 13 317 14.5 32.2 0.00 0.00 0.00 85 1014.5
20260902073906 13 345 17.7 32.2 0.00 0.00 0.00 85 1014.3
20260902073405 13 345 16.1 40.2 0.00 0.00 0.00 85 1014.3
20260902072905 13 343 14.5 25.7 0.00 0.00 0.00 85 1014.3
20260902072405 13 344 14.5 32.2 0.00 0.00 0.00 84 1014.4
20260902071905 13 351 17.7 35.4 0.00 0.00 0.00 84 1014.6
20260902071405 13 346 16.1 41.8 0.00 0.00 0.00 84 1014.6
20260902070405 13 329 14.5 33.8 0.00 0.00 0.00 84 1014.5
20260902065906 13 353 20.9 37.0 0.00 0.00 0.00 85 1014.5
20260902065405 13 298 19.3 32.2 0.00 0.00 0.00 85 1014.3
20260902064905 13 346 24.1 38.6 0.00 0.00 0.00 85 1014.3
20260902064405 13 348 17.7 37.0 0.00 0.00 0.00 85 1014.4
20260902063905 13 340 16.1 41.8 0.00 0.00 0.00 86 1014.4
20260902063405 13 326 16.1 41.8 0.00 0.00 0.00 86 1014.6
20260902062906 13 309 14.5 32.2 0.00 0.00 0.00 86 1014.6
20260902062409 13 316 14.5 33.8 0.00 0.00 0.00 87 1014.6
20260902061906 13 330 11.3 32.2 0.00 0.00 0.00 87 1014.7
20260902061405 13 339 12.9 27.4 0.00 0.00 0.00 87 1014.7
20260902060905 13 337 9.7 24.1 0.00 0.00 0.00 87 1014.7
20260902060405 13 294 14.5 38.6 0.00 0.00 0.00 87 1014.7
20260902055905 13 316 14.5 25.7 0.00 0.00 0.00 87 1014.5
20260902055405 13 290 9.7 22.5 0.00 0.00 0.00 87 1014.6
20260902054405 13 318 11.3 29.0 0.00 0.00 0.00 87 1014.6
20260902053905 13 275 11.3 25.7 0.00 0.00 0.00 87 1014.7
20260902052906 13 340 8.0 20.9 0.00 0.00 0.00 87 1014.6
20260902052405 13 314 12.9 27.4 0.00 0.00 0.00 87 1014.6
20260902051905 13 321 8.0 32.2 0.00 0.00 0.00 87 1014.6
20260902050904 13 346 14.5 25.7 0.00 0.00 0.00 86 1014.5
20260902050404 13 338 11.3 29.0 0.00 0.00 0.00 86 1014.5
20260902045905 13 344 14.5 29.0 0.00 0.00 0.00 86 1014.6
20260902045405 13 333 14.5 32.2 0.00 0.00 0.00 87 1014.6
20260902044905 13 314 11.3 27.4 0.00 0.00 0.00 87 1014.5
20260902044404 13 313 9.7 20.9 0.00 0.00 0.00 87 1014.5
20260902043905 13 282 12.9 22.5 0.00 0.00 0.00 87 1014.6
20260902043405 12 240 9.7 25.7 0.00 0.00 0.00 87 1014.7
20260902042905 12 300 8.0 20.9 0.00 0.00 0.00 87 1014.7
20260902042405 12 333 9.7 22.5 0.00 0.00 0.00 87 1014.7
20260902041905 12 304 8.0 16.1 0.00 0.00 0.00 87 1014.7
20260902041405 12 317 12.9 25.7 0.00 0.00 0.00 87 1014.8
20260902040905 12 312 9.7 24.1 0.00 0.00 0.00 86 1014.7
20260902040405 12 290 9.7 25.7 0.00 0.00 0.00 86 1014.8
20260902035905 12 290 11.3 20.9 0.00 0.00 0.00 86 1014.8
20260902035405 12 300 6.4 22.5 0.00 0.00 0.00 85 1014.9
20260902034405 12 302 8.0 20.9 0.00 0.00 0.00 83 1015.0
20260902033905 13 309 9.7 22.5 0.00 0.00 0.00 81 1015.0
20260902033405 13 335 9.7 19.3 0.00 0.00 0.00 80 1014.8
20260902032908 13 278 8.0 24.1 0.00 0.00 0.00 79 1014.9
20260902032405 13 338 11.3 20.9 0.00 0.00 0.00 78 1014.9
20260902031405 14 231 9.7 24.1 0.00 0.00 0.00 77 1015.0
20260902030905 14 282 9.7 22.5 0.00 0.00 0.00 76 1015.0
20260902030404 15 217 6.4 32.2 0.00 0.00 0.00 76 1014.9
20260902025904 15 306 9.7 32.2 0.00 0.00 0.00 74 1015.0
20260902025405 15 293 11.3 24.1 0.00 0.00 0.00 74 1014.9
20260902024905 15 311 11.3 27.4 0.00 0.00 0.00 74 1014.9
20260902024404 15 280 16.1 38.6 0.00 0.00 0.00 74 1014.9
20260902022905 15 255 11.3 32.2 0.00 0.00 0.00 75 1014.9
20260902022405 15 289 14.5 32.2 0.00 0.00 0.00 75 1014.9
20260902021905 15 312 12.9 33.8 0.00 0.00 0.00 76 1014.9
20260902021405 15 313 14.5 32.2 0.00 0.00 0.00 75 1014.9
20260902020905 15 308 12.9 35.4 0.00 0.00 0.00 75 1014.8
20260902015405 15 296 16.1 35.4 0.00 0.00 0.00 74 1014.8
20260902014905 15 290 11.3 32.2 0.00 0.00 0.00 75 1014.7
20260902014405 15 324 14.5 33.8 0.00 0.00 0.00 74 1014.7
20260902013905 15 333 14.5 29.0 0.00 0.00 0.00 75 1014.7
20260902012906 15 295 14.5 35.4 0.00 0.00 0.00 75 1014.7
20260902012405 15 212 12.9 27.4 0.00 0.00 0.00 75 1014.9
20260902011905 15 312 11.3 35.4 0.00 0.00 0.00 76 1014.9
20260902011405 15 292 16.1 33.8 0.00 0.00 0.00 75 1014.9
20260902010405 15 305 9.7 32.2 0.00 0.00 0.00 75 1015.1
20260902005406 15 349 14.5 27.4 0.00 0.00 0.00 74 1015.2
20260902004905 15 315 16.1 32.2 0.00 0.00 0.00 75 1015.2
20260902004406 15 340 16.1 41.8 0.00 0.00 0.00 74 1015.3
20260902003406 15 251 14.5 38.6 0.00 0.00 0.00 74 1015.4
20260902002905 15 273 14.5 29.0 0.00 0.00 0.00 74 1015.3
20260902002406 15 282 16.1 37.0 0.00 0.00 0.00 73 1015.4
20260902001905 15 319 12.9 33.8 0.00 0.00 0.00 73 1015.3
20260902001405 15 326 14.5 32.2 0.00 0.00 0.00 73 1015.4
20260902000905 15 294 14.5 33.8 0.00 0.00 0.00 73 1015.4
20260902000406 15 338 19.3 32.2 0.00 0.00 0.00 73 1015.4
20260901235905 15 284 16.1 32.2 0.00 0.00 0.00 71 1015.4
20260901235407 15 284 14.5 32.2 0.00 0.00 0.00 71 1015.3
20260901234906 15 323 12.9 29.0 0.00 0.00 0.00 71 1015.4
20260901234406 15 334 8.0 25.7 0.00 0.00 0.00 72 1015.3
20260901233905 15 249 16.1 27.4 0.00 0.00 0.00 71 1015.3
20260901233405 15 263 11.3 32.2 0.00 0.00 0.00 72 1015.3
20260901232405 15 303 9.7 32.2 0.00 0.00 0.00 74 1015.4
20260901230905 15 273 9.7 22.5 0.00 0.00 0.00 74 1015.6
20260901230406 15 254 9.7 29.0 0.00 0.00 0.00 74 1015.7
20260901225905 15 257 14.5 32.2 0.00 0.00 0.00 74 1015.5
20260901225407 15 267 11.3 25.7 0.00 0.00 0.00 76 1015.6
20260901224905 15 266 11.3 27.4 0.00 0.00 0.00 76 1015.7
20260901224406 14 232 11.3 41.8 0.00 0.00 0.00 76 1015.8
20260901223906 14 221 14.5 27.4 0.00 0.00 0.00 75 1015.7
20260901223405 14 246 9.7 33.8 0.00 0.00 0.00 76 1015.6
20260901222405 14 259 11.3 33.8 0.00 0.00 0.00 75 1015.6
20260901221905 14 308 14.5 32.2 0.00 0.00 0.00 75 1015.6
20260901221405 14 300 9.7 27.4 0.00 0.00 0.00 76 1015.6
20260901220906 13 348 8.0 27.4 0.00 0.00 0.00 75 1015.6
20260901220405 13 293 12.9 33.8 0.00 0.00 0.00 75 1015.5
20260901215906 13 274 14.5 32.2 0.00 0.00 0.00 75 1015.5
20260901215406 13 329 12.9 33.8 0.00 0.00 0.00 75 1015.5
20260901214405 13 335 12.9 33.8 0.00 0.00 0.00 76 1015.6
20260901213405 13 334 12.9 29.0 0.00 0.00 0.00 75 1015.6
20260901212905 13 337 12.9 37.0 0.00 0.00 0.00 75 1015.4
20260901212405 13 294 11.3 40.2 0.00 0.00 0.00 75 1015.4
20260901211905 13 310 9.7 32.2 0.00 0.00 0.00 75 1015.5
20260901211405 13 294 11.3 25.7 0.00 0.00 0.00 75 1015.5
20260901210405 13 270 8.0 29.0 0.00 0.00 0.00 75 1015.6
20260901205905 12 306 8.0 19.3 0.00 0.00 0.00 75 1015.7
20260901205407 12 203 8.0 33.8 0.00 0.00 0.00 75 1015.8
20260901204906 12 239 9.7 29.0 0.00 0.00 0.00 75 1015.9
20260901204405 12 216 9.7 20.9 0.00 0.00 0.00 76 1015.8
20260901203904 12 205 12.9 24.1 0.00 0.00 0.00 76 1015.8
20260901202906 11 210 11.3 40.2 0.00 0.00 0.00 78 1015.8
20260901202405 11 215 11.3 29.0 0.00 0.00 0.00 79 1015.9
20260901201905 11 223 9.7 19.3 0.00 0.00 0.00 79 1016.0
20260901201406 11 214 9.7 29.0 0.00 0.00 0.00 80 1016.0
20260901200905 10 293 9.7 19.3 0.00 0.00 0.00 80 1016.0
20260901200405 10 320 8.0 20.9 0.00 0.00 0.00 81 1016.1
20260901195904 10 225 6.4 16.1 0.00 0.00 0.00 81 1016.0
20260901194905 10 224 6.4 20.9 0.00 0.00 0.00 81 1015.9
20260901194405 10 233 9.7 24.1 0.00 0.00 0.00 81 1015.8
20260901193905 10 223 9.7 20.9 0.00 0.00 0.00 81 1015.8
20260901193405 10 315 11.3 37.0 0.00 0.00 0.00 82 1015.7
20260901192906 10 218 6.4 20.9 0.00 0.00 0.00 82 1015.6
20260901191905 10 200 8.0 32.2 0.00 0.00 0.00 83 1015.6
20260901191405 10 216 14.5 32.2 0.00 0.00 0.00 83 1015.4
20260901190905 10 350 4.8 19.3 0.00 0.00 0.00 83 1015.5
20260901190406 10 269 6.4 19.3 0.00 0.00 0.00 83 1015.5
20260901185905 10 226 9.7 20.9 0.00 0.00 0.00 83 1015.6
20260901185405 10 290 4.8 19.3 0.00 0.00 0.00 84 1015.5
20260901184905 10 235 8.0 22.5 0.00 0.00 0.00 84 1015.4
20260901184405 10 261 8.0 20.9 0.00 0.00 0.00 84 1015.5
20260901183905 11 282 9.7 25.7 0.00 0.00 0.00 84 1015.5
20260901183405 11 214 11.3 25.7 0.00 0.00 0.00 83 1015.7
20260901182905 10 256 9.7 22.5 0.00 0.00 0.00 83 1015.4
20260901182404 10 280 4.8 19.3 0.00 0.00 0.00 83 1015.4
20260901181905 10 276 4.8 20.9 0.00 0.00 0.00 83 1015.3
20260901180905 10 225 6.4 24.1 0.00 0.00 0.00 83 1015.4
20260901180405 10 297 8.0 20.9 0.00 0.00 0.00 83 1015.3
20260901175905 10 278 4.8 14.5 0.00 0.00 0.00 82 1015.3
20260901175405 10 270 8.0 14.5 0.00 0.00 0.00 82 1015.3
20260901174405 10 293 3.2 16.1 0.00 0.00 0.00 82 1015.2
20260901173905 10 239 6.4 16.1 0.00 0.00 0.00 81 1015.2
20260901173405 10 230 9.7 19.3 0.00 0.00 0.00 81 1015.2
20260901172905 10 218 9.7 27.4 0.00 0.00 0.00 81 1015.3
20260901172405 10 198 9.7 24.1 0.00 0.00 0.00 82 1015.3
20260901171905 10 219 9.7 22.5 0.00 0.00 0.00 82 1015.2
20260901171405 10 305 11.3 25.7 0.00 0.00 0.00 82 1015.1
20260901170904 10 265 9.7 27.4 0.00 0.00 0.00 83 1014.9
20260901170404 10 244 8.0 27.4 0.00 0.00 0.00 84 1014.9
20260901165905 10 202 9.7 22.5 0.00 0.00 0.00 84 1014.9
20260901164905 10 228 6.4 16.1 0.00 0.00 0.00 84 1014.8
20260901163904 10 210 9.7 24.1 0.00 0.00 0.00 83 1014.7